Flag for Taiwan Weather past 2 weeks in Kaohsiung, Taiwan

79 °F


Feels Like: 82 °F
Forecast: 73 / 85 °F
Wind: 5 mph from East

Location: Kaohsiung International Airport

Current Time: Oct 13, 2015 at 9:05:55 PM

Latest Report: Oct 13, 2015 at 8:30 PM

Visibility: 2 mi

Pressure: 30.04 "Hg

Humidity: 84%

Dew point: 73 °F

Location of KaohsiungLocation

Historic Weather in Kaohsiung — Graph


Kaohsiung temperature yesterday

Maximum temperature yesterday: 86 °F (at 12:48 PM)
Minimum temperature yesterday: 75 °F (at 4:00 AM)
Average temperature yesterday: 80 °F

Past Weeks' High & Low Weather Summary

High91 °F (Sep 30, 11:00 AM)100% (Oct 1, 3:00 AM)30.07 "Hg (Oct 1, 3:00 AM)
Low75 °F (Oct 11, 6:00 AM)55% (Oct 8, 12:30 PM)29.36 "Hg (Sep 28, 8:00 PM)
Average83 °F78%29.92 "Hg
* Reported Sep 28 8:00 PM — Oct 13 8:00 PM, Kaohsiung, Weather by CustomWeather, © 2015

Note: Actual official high and low records may vary slightly from our data, if they occured in-between our weather recording intervals... More about our weather records


Kaohsiung weather history for previous 24 hours

Time TempWeatherWind HumidityBarometerVisibility
8:00 PM
Tue, Oct 13
79 °FFog.6 mph84%30.04 "Hg2 mi
7:30 PM79 °FFog.7 mph84%30.01 "Hg2 mi
7:00 PM81 °FPassing clouds.2 mph70%30.01 "HgN/A
6:30 PM81 °FPassing clouds.2 mph70%29.98 "HgN/A
6:00 PM81 °FPassing clouds.6 mph74%29.98 "Hg6 mi
5:30 PM81 °FPartly sunny.6 mph74%29.98 "Hg6 mi
5:00 PM81 °FPartly sunny.7 mph74%29.98 "Hg5 mi
4:30 PM81 °FPartly sunny.8 mph74%29.98 "Hg4 mi
4:00 PM81 °FPartly sunny.9 mph74%29.98 "Hg4 mi
3:30 PM82 °FPartly sunny.9 mph74%29.98 "Hg4 mi
3:00 PM82 °FPartly sunny.8 mph74%29.98 "Hg4 mi
2:30 PM84 °FPartly sunny.9 mph70%29.98 "Hg4 mi
2:00 PM84 °FPartly sunny.9 mph70%29.98 "Hg4 mi
1:30 PM82 °FPartly sunny.9 mph74%30.01 "Hg5 mi
1:00 PM84 °FBroken clouds.12 mph70%30.01 "Hg5 mi
12:30 PM84 °FBroken clouds.9 mph66%30.01 "Hg4 mi
12:00 PM82 °FBroken clouds.8 mph74%30.04 "Hg5 mi
11:30 AM82 °FBroken clouds.9 mph74%30.07 "Hg5 mi
11:00 AM82 °FBroken clouds.8 mph74%30.07 "Hg5 mi
10:30 AM82 °FBroken clouds.5 mph70%30.07 "Hg5 mi
10:00 AM81 °FBroken clouds.3 mph74%30.07 "Hg4 mi
9:30 AM81 °FBroken clouds.5 mph74%30.07 "Hg4 mi
9:00 AM81 °FBroken clouds.5 mph74%30.07 "Hg4 mi
8:30 AM79 °FBroken clouds.5 mph79%30.07 "Hg5 mi
8:00 AM79 °FBroken clouds.3 mph79%30.07 "Hg5 mi
7:30 AM79 °FBroken clouds.5 mph79%30.07 "Hg5 mi
7:00 AM79 °FBroken clouds.5 mph79%30.07 "Hg4 mi
6:30 AM77 °FFog.3 mph83%30.04 "Hg3 mi
6:00 AM77 °FBroken clouds.2 mph83%30.04 "Hg4 mi
5:00 AM77 °FPartly cloudy.6 mph83%30.01 "Hg4 mi
4:00 AM79 °FPartly cloudy.5 mph84%30.01 "HgN/A
3:00 AM79 °FPartly cloudy.7 mph84%30.01 "HgN/A
2:00 AM79 °FPartly cloudy.1 mph70%30.04 "HgN/A
1:00 AM79 °FPartly cloudy.3 mph74%30.04 "HgN/A
12:00 AM77 °FPartly cloudy.3 mph79%30.07 "Hg5 mi
11:30 PM
Mon, Oct 12
79 °FPartly cloudy.6 mph70%30.07 "HgN/A
11:00 PM81 °FPartly cloudy.9 mph62%30.07 "Hg5 mi
10:30 PM81 °FPartly cloudy.7 mph70%30.07 "HgN/A
10:00 PM81 °FPartly cloudy.7 mph70%30.07 "HgN/A
9:50 PM79 °FPassing clouds.6 mph74%30.07 "HgN/A
9:30 PM79 °FSprinkles. Passing clouds.10 mph74%30.07 "HgN/A
9:00 PM79 °FSprinkles. Passing clouds.8 mph70%30.07 "HgN/A
Weather by CustomWeather, © 2015

See weather overviewHow to use our weather pages